Location: *
(37.5724°S, 58.0067°E)
Time: 06:31:40
(UTC+00:00)

Cosmos 1933 Rocket - Pass Details

Date: 30 January 2021
Orbit: 607 x 630 km, 82.5° (Epoch: 06 March)

Event Time Altitude Azimuth Distance (km) Brightness Sun altitude
Rises 19:13:52 0° 199° (SSW) 2,956 8.2 -32.7°
Reaches altitude 10° 19:16:20 10° 209° (SSW) 2,037 7.0 -32.9°
Enters shadow 19:18:34 23° 232° (SW) 1,355 5.7 -33.0°
